Regional Weather Roundup
Issued by NWS

Home | Current Version | Previous Version | Graphics & Text | Print | Product List | Glossary On
Versions: 1 2 3 4 5 6 7 8 9 10 11 12 13 14 15 16 17 18 19 20 21 22 23 24 25 26 27 28 29 30 31 32 33 34 35 36 37 38 39 40 41 42 43 44 45 46 47 48 49 50
368
ASUS45 KCYS 231410
RWRWY

WYOMING REGIONAL WEATHER ROUNDUP
NATIONAL WEATHER SERVICE CHEYENNE WY
700 AM MST TUE JAN 23 2018

NOTE:  "FAIR" INDICATES FEW OR NO CLOUDS BELOW 12,000 FEET
WITH NO SIGNIFICANT WEATHER AND/OR OBSTRUCTIONS TO VISIBILITY.

WYZ001-231500-
YELLOWSTONE NATIONAL PARK

CITY           SKY/WX    TMP DP  RH WIND       PRES   REMARKS
LK YELLOWSTONE   N/A     -7 -10  87 CALM      30.19S
W YELLOWSTONE  NOT AVBL

$$
WYZ002>013-054>058-071-098>099-231500-
NORTHERN WYOMING

CITY           SKY/WX    TMP DP  RH WIND       PRES   REMARKS
JACKSON        LGT SNOW  15  12  88 E5        30.22F FOG     WCI   8
CODY           FAIR      25   9  50 W6        30.17S WCI  18
GREYBULL       CLOUDY     4   2  91 CALM      30.23R
WORLAND        FAIR      -2  -4  91 S3        30.21R
SHERIDAN       FAIR      21  11  65 W5        30.16R WCI  15
BUFFALO        FAIR      25   6  44 NW7       30.13S WCI  17
GILLETTE       CLOUDY    25  17  72 W10       30.13R WCI  15
HULETT         FAIR      25  19  80 SW6       30.12S WCI  18
NEWCASTLE      FAIR      18  14  86 N8        30.15R WCI   7

$$
WYZ014>020-022>026-101>103-231500-
CENTRAL WYOMING

CITY           SKY/WX    TMP DP  RH WIND       PRES   REMARKS
BIG PINEY      FAIR      -4  -7  87 NE3       30.23R
PINEDALE       FAIR       0  -4  85 NW5       30.23R WCI -10
DUBOIS         FAIR      18   9  68 NW14      30.13F WCI   4
LANDER         FAIR       5   0  79 S5        30.17R WCI  -4
RIVERTON       FAIR       1  -2  87 CALM      30.18R
CASPER         FAIR      14   9  80 SW12      30.17R WCI   0
DOUGLAS        FAIR       7   4  87 W5        30.17R WCI  -2

$$
WYZ021-027>030-104>119-231500-
SOUTHERN WYOMING

CITY           SKY/WX    TMP DP  RH WIND       PRES   REMARKS
EVANSTON       CLOUDY    20  17  88 W6        30.26S WCI  12
FORT BRIDGER   FAIR      17  17  98 W10       30.28S WCI   5
ROCK SPRINGS   FAIR      16   9  74 SW16      30.23S WCI   1
DIXON            N/A     11   8  87 CALM      30.29S
RAWLINS        FAIR      15  10  80 W14       30.20R WCI   0
SARATOGA       FAIR      18  12  79 SW20G25   30.19S WCI   1
LARAMIE        CLOUDY    16  10  77 SW15      30.13R WCI   1
CHEYENNE       FAIR      22  13  68 NW7       30.13S WCI  13
TORRINGTON     FAIR      19  14  81 W5        30.16R WCI  12

$$




USA.gov is the U.S. government's official web portal to all federal, state and local government web resources and services.